Weather History for Fond du Lac, WI

Change the Weather History Date:

Tuesday, March 4, 2014

  Actual Average Record
Temperature  
Mean Temperature 14 °F -  
Max Temperature 19 °F 36 °F 52 °F (1968)
Min Temperature 10 °F 21 °F -11 °F (2002)
Degree Days  
Heating Degree Days 50    
Moisture  
Dew Point 6 °F    
Average Humidity 73    
Maximum Humidity 85    
Minimum Humidity 57    
Precipitation  
Precipitation 0.06 in - - ()
Sea Level Pressure  
Sea Level Pressure 30.26 in    
Wind  
Wind Speed 6 mph (SSW)    
Max Wind Speed 10 mph    
Max Gust Speed -    
Visibility 6 miles    
Events Snow    
Averages and records for this station are not official NWS values.
T = Trace of Precipitation, MM = Missing Value Source: NWS Daily Summary

Daily Weather History Graph

Daily Weather History Graph

Search for Another Location

Airport:

Trip Planner

Search our weather history database for the weather conditions in past years. The results will help you decide how hot, cold, wet, or windy it might be!

Date:

Astronomy

Mar. 04, 2014 Rise Set
Actual Time 6:25 AM CST 5:46 PM CST
Civil Twilight 5:56 AM CST 6:15 PM CST
Nautical Twilight 5:23 AM CST 6:48 PM CST
Astronomical Twilight 4:50 AM CST 7:21 PM CST
Moon 8:03 AM CST (3/4) 10:02 PM CST (3/4)
Length of Visible Light 12h 18m
Length of Day
11h 20m
Waxing Crescent, 15% of the Moon is Illuminated
Mar 4
Waxing Crescent
Mar 8
First Quarter
Mar 16
Full
Mar 23
Last Quarter
Mar 30
New

Hourly Weather History & Observations

Time (CST) Temp. Windchill Dew Point Humidity Pressure Visibility Wind Dir Wind Speed Gust Speed Precip Events Conditions
12:37 AM 12.0 °F 2.7 °F 1.9 °F 64% 30.30 in 2.5 mi SSW 5.8 mph - 0.00 in Snow Light Snow
12:53 AM 10.9 °F 0.2 °F 3.9 °F 73% 30.36 in 1.8 mi SSW 6.9 mph - 0.00 in Snow Light Snow
1:06 AM 10.9 °F 0.2 °F 3.9 °F 73% 30.29 in 2.0 mi South 6.9 mph - 0.00 in Snow Light Snow
1:19 AM 10.0 °F -0.9 °F 5.0 °F 80% 30.29 in 1.8 mi SSW 6.9 mph - 0.00 in Snow Light Snow
1:38 AM 10.0 °F -0.9 °F 5.0 °F 80% 30.29 in 2.0 mi South 6.9 mph - 0.00 in Snow Light Snow
1:51 AM 10.4 °F -0.4 °F 6.8 °F 85% 30.28 in 1.5 mi South 6.9 mph - 0.00 in Snow Light Snow
1:53 AM 10.0 °F 0.4 °F 6.1 °F 84% 30.34 in 1.5 mi South 5.8 mph - 0.00 in Snow Light Snow
2:30 AM 10.0 °F 1.8 °F 6.1 °F 84% 30.28 in 1.0 mi SSW 4.6 mph - 0.02 in Snow Light Snow
2:38 AM 10.0 °F 1.8 °F 6.1 °F 84% 30.27 in 0.8 mi South 4.6 mph - 0.02 in Snow Light Snow
2:50 AM 10.4 °F 2.2 °F 6.8 °F 85% 30.26 in 1.0 mi SSW 4.6 mph - 0.03 in Snow Light Snow
2:53 AM 10.0 °F 1.8 °F 6.1 °F 84% 30.32 in 1.0 mi South 4.6 mph - 0.03 in Snow Light Snow
3:34 AM 10.0 °F -1.9 °F 6.1 °F 84% 30.25 in 1.5 mi SSW 8.1 mph - 0.01 in Snow Light Snow
3:43 AM 10.0 °F 0.4 °F 6.1 °F 84% 30.25 in 2.0 mi SSW 5.8 mph - 0.01 in Snow Light Snow
3:53 AM 10.0 °F -0.9 °F 6.1 °F 84% 30.30 in 1.8 mi South 6.9 mph - 0.02 in Snow Light Snow
4:12 AM 10.0 °F -1.9 °F 5.0 °F 80% 30.24 in 2.0 mi South 8.1 mph - 0.00 in Snow Light Snow
4:21 AM 10.0 °F -2.9 °F 5.0 °F 80% 30.24 in 1.5 mi South 9.2 mph - 0.00 in Snow Light Snow
4:33 AM 10.0 °F -3.7 °F 5.0 °F 80% 30.24 in 2.0 mi SSW 10.4 mph - 0.00 in Snow Light Snow
4:53 AM 10.0 °F -3.7 °F 5.0 °F 80% 30.29 in 2.0 mi SSW 10.4 mph - 0.00 in Snow Light Snow
5:06 AM 10.0 °F -1.9 °F 5.0 °F 80% 30.23 in 1.5 mi SSW 8.1 mph - 0.00 in Snow Light Snow
5:30 AM 10.0 °F -1.9 °F 5.0 °F 80% 30.23 in 1.8 mi SSW 8.1 mph - 0.01 in Snow Light Snow
5:45 AM 10.0 °F -2.9 °F 5.0 °F 80% 30.23 in 2.5 mi SSW 9.2 mph - 0.01 in Snow Light Snow
5:53 AM 10.0 °F -1.9 °F 5.0 °F 80% 30.28 in 3.0 mi SSW 8.1 mph - 0.01 in Snow Light Snow
6:53 AM 10.0 °F -2.9 °F 3.9 °F 76% 30.28 in 4.0 mi SSW 9.2 mph - 0.00 in Snow Light Snow
7:53 AM 10.9 °F -1.8 °F 5.0 °F 77% 30.27 in 10.0 mi SSW 9.2 mph - 0.00 in   Overcast
8:53 AM 12.0 °F -1.3 °F 6.1 °F 77% 30.27 in 10.0 mi SW 10.4 mph - N/A   Overcast
9:53 AM 12.9 °F 0.7 °F 5.0 °F 71% 30.25 in 10.0 mi SW 9.2 mph - N/A   Overcast
10:43 AM 15.1 °F 4.2 °F 5.0 °F 64% 30.20 in 10.0 mi West 8.1 mph - N/A   Overcast
10:53 AM 15.1 °F 5.2 °F 6.1 °F 68% 30.25 in 10.0 mi WSW 6.9 mph - N/A   Overcast
11:53 AM 16.0 °F 7.4 °F 6.1 °F 65% 30.24 in 10.0 mi WNW 5.8 mph - N/A   Overcast
12:53 PM 17.1 °F 8.7 °F 7.0 °F 65% 30.24 in 10.0 mi WNW 5.8 mph - N/A   Overcast
1:53 PM 17.1 °F 8.7 °F 6.1 °F 62% 30.25 in 10.0 mi NNW 5.8 mph - N/A   Overcast
2:00 PM 17.1 °F 10.0 °F 7.0 °F 65% 30.19 in 10.0 mi NW 4.6 mph - N/A   Overcast
2:48 PM 19.4 °F - 6.8 °F 58% 30.17 in 10.0 mi Calm Calm - N/A   Overcast
2:53 PM 19.0 °F - 7.0 °F 59% 30.23 in 10.0 mi Calm Calm - N/A   Overcast
3:01 PM 18.0 °F - 6.1 °F 60% 30.18 in 10.0 mi Calm Calm - N/A   Overcast
3:27 PM 19.0 °F - 6.1 °F 57% 30.19 in 10.0 mi Calm Calm - N/A   Overcast
3:39 PM 18.0 °F - 6.1 °F 60% 30.18 in 10.0 mi Calm Calm - N/A   Overcast
3:53 PM 18.0 °F 8.7 °F 8.1 °F 65% 30.23 in 10.0 mi NNE 6.9 mph - N/A   Overcast
4:53 PM 17.1 °F 10.0 °F 7.0 °F 65% 30.25 in 10.0 mi NNE 4.6 mph - N/A   Overcast
5:53 PM 16.0 °F 8.8 °F 7.0 °F 68% 30.25 in 10.0 mi NNE 4.6 mph - N/A   Overcast
6:53 PM 16.0 °F 8.8 °F 6.1 °F 65% 30.27 in 10.0 mi NE 4.6 mph - N/A   Overcast
7:53 PM 15.1 °F - 5.0 °F 64% 30.28 in 10.0 mi Calm Calm - N/A   Overcast
8:53 PM 12.9 °F 5.2 °F 5.0 °F 71% 30.30 in 10.0 mi NNE 4.6 mph - N/A   Partly Cloudy
9:53 PM 14.0 °F 5.1 °F 6.1 °F 71% 30.31 in 10.0 mi NE 5.8 mph - N/A   Overcast
10:53 PM 12.0 °F 5.9 °F 6.1 °F 77% 30.32 in 10.0 mi NE 3.5 mph - N/A   Clear
11:53 PM 12.9 °F 6.9 °F 6.1 °F 74% 30.33 in 10.0 mi ENE 3.5 mph - N/A   Mostly Cloudy